Location: Home
(42.5358°N, 72.7383°W)
Time: 05:19:47
(UTC-05:00)

Courier 1B Rocket - Pass Details

Date: 01 December 2021
Orbit: 920 x 1202 km, 28.2° (Epoch: 25 January)

Event Time Altitude Azimuth Distance (km) Brightness Sun altitude
Rises 04:30:42 0° 250° (WSW) 3,586 - -27.1°
Reaches altitude 10° 04:35:44 10° 216° (SW) 2,690 - -26.2°
Exits shadow 04:37:09 11° 203° (SSW) 2,640 7.1 -25.9°
Maximum altitude 04:37:19 11° 201° (SSW) 2,641 7.1 -25.9°
Drops below altitude 10° 04:38:55 10° 187° (S) 2,730 7.3 -25.6°
Sets 04:44:12 0° 153° (SSE) 3,756 8.5 -24.6°
